• In Uzbekistan
  • List of Countries
  • For 7 days
  • Water Temperature
  • Satellite Maps
  • Weather Map
  • Weather Widgets
  • user-avatar
    Login

    Hourly Weather Luslawice

    Today, 20 February, Wednesday

    Time Temperature Precipitation Wind Pressure Humidity
    00:00 +4°C° 0.1 mm 3 mps 742 mmHg 82%
    01:00 +4°C° 0 mm 3 mps 742 mmHg 84%
    02:00 +4°C° 0.1 mm 4 mps 742 mmHg 86%
    03:00 +4°C° 0.1 mm 4 mps 742 mmHg 87%
    04:00 +3°C° 0.1 mm 4 mps 742 mmHg 88%
    05:00 +3°C° 0 mm 4 mps 742 mmHg 88%
    06:00 +3°C° 0 mm 4 mps 743 mmHg 87%
    07:00 +3°C° 0 mm 4 mps 743 mmHg 86%
    08:00 +3°C° 0.1 mm 5 mps 743 mmHg 81%
    09:00 +3°C° 0.1 mm 5 mps 743 mmHg 77%
    10:00 +4°C° 0.1 mm 6 mps 744 mmHg 72%
    11:00 +4°C° 0.1 mm 6 mps 744 mmHg 69%
    12:00 +5°C° 0.1 mm 6 mps 744 mmHg 65%
    13:00 +5°C° 0.1 mm 6 mps 744 mmHg 62%
    14:00 +5°C° 0.1 mm 6 mps 744 mmHg 62%
    15:00 +5°C° 0.1 mm 6 mps 744 mmHg 61%
    16:00 +6°C° 0.1 mm 5 mps 744 mmHg 61%
    17:00 +5°C° 0 mm 4 mps 745 mmHg 66%
    18:00 +4°C° 0 mm 4 mps 745 mmHg 70%
    19:00 +4°C° 0 mm 3 mps 745 mmHg 75%
    20:00 +4°C° 0 mm 3 mps 746 mmHg 75%
    21:00 +4°C° 0 mm 3 mps 746 mmHg 76%
    22:00 +4°C° 0 mm 3 mps 747 mmHg 77%
    23:00 +3°C° 0 mm 3 mps 747 mmHg 79%

    Tomorrow, 21 February, Thursday

    Time Temperature Precipitation Wind Pressure Humidity
    00:00 +3°C° 0 mm 3 mps 747 mmHg 80%
    01:00 +2°C° 0 mm 3 mps 747 mmHg 82%
    02:00 +2°C° 0 mm 3 mps 747 mmHg 82%
    03:00 +2°C° 0 mm 3 mps 747 mmHg 81%
    04:00 +2°C° 0 mm 3 mps 748 mmHg 81%
    05:00 +2°C° 0 mm 3 mps 748 mmHg 81%
    06:00 +2°C° 0 mm 3 mps 748 mmHg 81%
    07:00 +2°C° 0 mm 3 mps 748 mmHg 81%
    08:00 +3°C° 0 mm 4 mps 748 mmHg 75%
    09:00 +5°C° 0 mm 4 mps 748 mmHg 69%
    10:00 +6°C° 0 mm 4 mps 748 mmHg 64%
    11:00 +7°C° 0 mm 4 mps 748 mmHg 61%
    12:00 +8°C° 0 mm 4 mps 747 mmHg 58%
    13:00 +8°C° 0 mm 4 mps 747 mmHg 55%
    14:00 +8°C° 0 mm 4 mps 747 mmHg 58%
    15:00 +8°C° 0 mm 4 mps 746 mmHg 60%
    16:00 +8°C° 0 mm 3 mps 746 mmHg 63%
    17:00 +7°C° 0.4 mm 4 mps 746 mmHg 68%
    18:00 +6°C° 0.4 mm 4 mps 746 mmHg 73%
    19:00 +6°C° 0.4 mm 4 mps 746 mmHg 78%
    20:00 +5°C° 0.8 mm 5 mps 745 mmHg 79%
    21:00 +5°C° 0.8 mm 5 mps 745 mmHg 79%
    22:00 +4°C° 0.8 mm 6 mps 744 mmHg 80%
    23:00 +4°C° 0.5 mm 6 mps 744 mmHg 81%

    Day after tomorrow, 22 February, Friday

    Time Temperature Precipitation Wind Pressure Humidity
    00:00 +4°C° 0.5 mm 6 mps 744 mmHg 81%
    01:00 +4°C° 0.5 mm 6 mps 743 mmHg 82%
    02:00 +4°C° 0.6 mm 6 mps 743 mmHg 84%
    03:00 +4°C° 0.6 mm 6 mps 742 mmHg 86%
    04:00 +4°C° 0.6 mm 6 mps 742 mmHg 88%
    05:00 +4°C° 0.8 mm 6 mps 742 mmHg 89%
    06:00 +4°C° 0.8 mm 6 mps 742 mmHg 89%
    07:00 +4°C° 0.8 mm 6 mps 743 mmHg 90%
    08:00 +2°C° 0.7 mm 6 mps 744 mmHg 87%
    09:00 -1°C° 0.7 mm 7 mps 745 mmHg 85%
    10:00 -3°C° 0.7 mm 7 mps 746 mmHg 82%
    11:00 -3°C° 0.1 mm 7 mps 747 mmHg 78%
    12:00 -3°C° 0.1 mm 6 mps 748 mmHg 73%
    13:00 -3°C° 0.1 mm 6 mps 750 mmHg 69%
    14:00 -3°C° 0 mm 6 mps 750 mmHg 65%
    15:00 -3°C° 0 mm 6 mps 751 mmHg 61%
    16:00 -4°C° 0 mm 6 mps 752 mmHg 58%
    17:00 -5°C° 0 mm 6 mps 752 mmHg 60%
    18:00 -5°C° 0 mm 5 mps 753 mmHg 62%
    19:00 -6°C° 0 mm 5 mps 754 mmHg 65%
    20:00 -7°C° 0 mm 5 mps 754 mmHg 63%
    21:00 -7°C° 0 mm 5 mps 755 mmHg 61%
    22:00 -7°C° 0 mm 5 mps 756 mmHg 59%
    23:00 -7°C° 0 mm 5 mps 756 mmHg 56%

    23 February, Saturday

    Time Temperature Precipitation Wind Pressure Humidity
    00:00 -7°C° 0 mm 5 mps 756 mmHg 53%
    01:00 -7°C° 0 mm 4 mps 757 mmHg 50%
    02:00 -8°C° 0 mm 4 mps 757 mmHg 49%
    03:00 -8°C° 0 mm 4 mps 757 mmHg 48%
    04:00 -8°C° 0 mm 4 mps 757 mmHg 47%
    05:00 -8°C° 0 mm 4 mps 757 mmHg 48%
    06:00 -7°C° 0 mm 3 mps 757 mmHg 49%
    07:00 -7°C° 0 mm 3 mps 758 mmHg 50%
    08:00 -7°C° 0 mm 3 mps 758 mmHg 47%
    09:00 -7°C° 0 mm 4 mps 758 mmHg 45%
    10:00 -7°C° 0 mm 4 mps 759 mmHg 43%
    11:00 -5°C° 0 mm 4 mps 759 mmHg 40%
    12:00 -4°C° 0 mm 3 mps 758 mmHg 37%
    13:00 -4°C° 0 mm 3 mps 758 mmHg 35%
    14:00 -4°C° 0 mm 3 mps 758 mmHg 35%
    15:00 -4°C° 0 mm 3 mps 758 mmHg 36%
    16:00 -4°C° 0 mm 3 mps 758 mmHg 36%
    17:00 -4°C° 0 mm 3 mps 758 mmHg 40%
    18:00 -4°C° 0 mm 2 mps 758 mmHg 43%
    19:00 -5°C° 0 mm 2 mps 758 mmHg 47%
    20:00 -3°C° 0 mm 1 mps 758 mmHg 47%
    21:00 -3°C° 0 mm 1 mps 758 mmHg 48%
    22:00 -3°C° 0 mm 1 mps 758 mmHg 49%
    23:00 -3°C° 0 mm 1 mps 758 mmHg 49%

    24 February, Sunday

    Time Temperature Precipitation Wind Pressure Humidity
    00:00 -3°C° 0 mm 1 mps 758 mmHg 49%
    01:00 -3°C° 0 mm 1 mps 758 mmHg 49%
    02:00 -3°C° 0 mm 1 mps 758 mmHg 50%
    03:00 -3°C° 0 mm 1 mps 758 mmHg 50%
    04:00 -4°C° 0 mm 1 mps 757 mmHg 50%
    05:00 -4°C° 0 mm 1 mps 757 mmHg 50%
    06:00 -4°C° 0 mm 1 mps 757 mmHg 49%
    07:00 -4°C° 0 mm 1 mps 757 mmHg 49%
    08:00 -4°C° 0 mm 2 mps 757 mmHg 43%
    09:00 -3°C° 0 mm 2 mps 757 mmHg 36%
    10:00 -2°C° 0 mm 2 mps 757 mmHg 30%
    11:00 -1°C° 0 mm 2 mps 757 mmHg 30%
    12:00 +1°C° 0 mm 2 mps 757 mmHg 30%
    13:00 +1°C° 0 mm 2 mps 756 mmHg 31%
    14:00 +1°C° 0 mm 2 mps 756 mmHg 34%
    15:00 +1°C° 0 mm 2 mps 756 mmHg 38%
    16:00 +1°C° 0 mm 2 mps 756 mmHg 42%
    17:00 -1°C° 0 mm 2 mps 756 mmHg 45%
    18:00 +1°C° 0 mm 1 mps 756 mmHg 48%
    19:00 0°C° 0 mm 1 mps 756 mmHg 51%
    20:00 0°C° 0 mm 1 mps 756 mmHg 52%
    21:00 -1°C° 0 mm 1 mps 756 mmHg 53%
    22:00 -1°C° 0 mm 1 mps 756 mmHg 53%
    23:00 -3°C° 0 mm 2 mps 756 mmHg 54%

    25 February, Monday

    Time Temperature Precipitation Wind Pressure Humidity
    00:00 -3°C° 0 mm 2 mps 756 mmHg 55%
    01:00 -3°C° 0 mm 2 mps 756 mmHg 56%
    02:00 -3°C° 0 mm 2 mps 756 mmHg 56%
    03:00 -3°C° 0 mm 2 mps 755 mmHg 56%
    04:00 -3°C° 0 mm 2 mps 755 mmHg 57%
    05:00 -2°C° 0 mm 2 mps 755 mmHg 57%
    06:00 -2°C° 0 mm 2 mps 754 mmHg 57%
    07:00 -2°C° 0 mm 3 mps 754 mmHg 57%
    08:00 0°C° 0 mm 3 mps 754 mmHg 55%
    09:00 0°C° 0 mm 4 mps 754 mmHg 52%
    10:00 +1°C° 0 mm 5 mps 754 mmHg 50%
    11:00 +2°C° 0 mm 5 mps 753 mmHg 52%
    12:00 +3°C° 0 mm 5 mps 753 mmHg 55%
    13:00 +4°C° 0 mm 6 mps 753 mmHg 57%
    14:00 +3°C° 0 mm 5 mps 753 mmHg 65%
    15:00 +3°C° 0 mm 5 mps 753 mmHg 72%
    16:00 +3°C° 0 mm 4 mps 753 mmHg 80%
    17:00 +1°C° 0 mm 4 mps 753 mmHg 83%
    18:00 +2°C° 0 mm 3 mps 754 mmHg 87%
    19:00 +1°C° 0 mm 3 mps 754 mmHg 90%
    20:00 +1°C° 0 mm 2 mps 754 mmHg 91%
    21:00 -1°C° 0 mm 2 mps 754 mmHg 93%
    22:00 -1°C° 0 mm 2 mps 754 mmHg 94%
    23:00 -1°C° 0 mm 2 mps 754 mmHg 94%
    Show more